Location: Newark
(34.6283°N, 36.0776°E)
Time: 11:45:34
(UTC+00:00)

A-11 Canister half - Pass Details

Date: 19 September 2019
Orbit: 1527 x 1682 km, 47.3° (Epoch: 20 October)

Event Time Altitude Azimuth Distance (km) Brightness Sun altitude
Rises 22:14:04 0° 168° (SSE) 4,661 - -52.6°
Reaches altitude 10° 22:20:27 10° 136° (SE) 3,692 - -52.1°
Maximum altitude 22:22:42 11° 121° (ESE) 3,617 - -52.0°
Drops below altitude 10° 22:24:58 10° 107° (ESE) 3,710 - -51.8°
Exits shadow 22:26:49 - 96° (E) 3,905 11.2 -51.6°
Sets 22:31:23 0° 75° (ENE) 4,729 11.9 -51.2°
